CW2927 Weather Reports


Display with metric or nautical units.
time (UTC)temp
F
wind
direction
speed
MPH
gust
MPH
rain 1hr
in
rain 24hr
in
rain mn
in
humidity
%
barometer
mb
20260510182704 63 321 8.0 18.0 0.00 0.01 0.01 42 1008.8
20260510182204 63 271 5.0 17.0 0.00 0.01 0.01 41 1008.7
20260510180204 63 257 6.0 20.0 0.00 0.01 0.01 42 1008.6
20260510174704 62 201 6.0 20.0 0.00 0.01 0.01 37 1008.5
20260510174204 62 252 7.0 17.0 0.00 0.01 0.01 39 1008.5
20260510172704 61 243 10.0 18.0 0.00 0.01 0.01 39 1008.4
20260510172205 62 259 11.0 21.0 0.00 0.01 0.01 38 1008.5
20260510170705 62 308 7.0 18.0 0.00 0.01 0.01 43 1008.4
20260510170204 61 241 6.0 16.0 0.00 0.01 0.01 42 1008.3
20260510164704 61 261 7.0 17.0 0.00 0.01 0.01 43 1008.4
20260510164204 61 250 7.0 17.0 0.00 0.01 0.01 43 1008.3
20260510162704 61 260 7.0 14.0 0.00 0.01 0.01 47 1008.3
20260510160704 61 297 3.0 18.0 0.00 0.01 0.01 51 1008.1
20260510160204 61 290 9.0 15.0 0.00 0.01 0.01 49 1008.3
20260510154704 61 240 7.0 15.0 0.00 0.01 0.01 49 1008.3
20260510154204 61 237 5.0 15.0 0.00 0.01 0.01 51 1008.4
20260510152704 59 298 6.0 12.0 0.00 0.01 0.01 57 1008.1
20260510152204 59 273 4.0 15.0 0.00 0.01 0.01 58 1008.1
20260510150704 61 265 5.0 12.0 0.00 0.01 0.01 60 1007.9
20260510150204 61 212 6.0 13.0 0.00 0.01 0.01 59 1007.9
20260510144705 60 200 4.0 15.0 0.00 0.01 0.01 57 1007.9
20260510144204 60 210 4.0 15.0 0.00 0.01 0.01 58 1007.9
20260510142704 58 210 5.0 9.0 0.00 0.01 0.01 59 1007.9
20260510142205 57 232 5.0 12.0 0.00 0.01 0.01 60 1007.8
20260510140707 56 207 4.0 13.0 0.00 0.01 0.01 61 1008.0
20260510140207 56 201 4.0 14.0 0.00 0.01 0.01 61 1007.9
20260510134704 57 225 5.0 13.0 0.00 0.01 0.01 66 1007.8
20260510134204 56 208 5.0 14.0 0.00 0.01 0.01 69 1007.7
20260510132704 56 236 5.0 10.0 0.00 0.01 0.01 66 1007.6
20260510132204 56 246 4.0 8.0 0.00 0.01 0.01 67 1007.6
20260510130704 57 233 5.0 13.0 0.00 0.01 0.01 70 1007.5
20260510130204 57 229 7.0 16.0 0.00 0.01 0.01 70 1007.4
20260510124704 56 208 6.0 9.0 0.00 0.01 0.01 74 1007.3
20260510124204 56 218 5.0 10.0 0.00 0.01 0.01 76 1007.2
20260510122204 55 209 3.0 20.0 0.00 0.01 0.01 81 1007.3
20260510120704 55 189 3.0 6.0 0.00 0.01 0.01 83 1007.2
20260510120204 55 211 5.0 16.0 0.00 0.01 0.01 84 1007.1
20260510114704 54 184 6.0 12.0 0.00 0.01 0.01 86 1006.9
20260510114204 53 165 4.0 9.0 0.00 0.01 0.01 86 1006.7
20260510112704 53 184 4.0 9.0 0.00 0.01 0.01 87 1006.7
20260510112203 53 168 3.0 9.0 0.00 0.01 0.01 87 1006.8
20260510110704 53 186 5.0 12.0 0.00 0.01 0.01 87 1006.5
20260510110204 52 163 3.0 12.0 0.00 0.01 0.01 87 1006.6
20260510104704 52 171 3.0 7.0 0.00 0.01 0.01 88 1006.2
20260510104204 52 162 3.0 8.0 0.00 0.01 0.01 88 1006.3
20260510102704 51 182 3.0 12.0 0.00 0.01 0.01 88 1006.2
20260510102204 51 174 5.0 9.0 0.00 0.01 0.01 88 1006.1
20260510100704 51 171 4.0 9.0 0.00 0.01 0.01 88 1005.7
20260510100204 51 171 2.0 6.0 0.00 0.01 0.01 88 1005.6
20260510094704 51 169 3.0 5.0 0.00 0.01 0.01 88 1005.4
20260510094204 51 164 3.0 8.0 0.00 0.01 0.01 88 1005.4
20260510092704 51 162 4.0 8.0 0.00 0.01 0.01 88 1005.2
20260510092204 51 165 5.0 10.0 0.00 0.01 0.01 88 1005.2
20260510090704 50 161 3.0 7.0 0.00 0.01 0.01 88 1005.2
20260510084704 50 148 5.0 9.0 0.00 0.01 0.01 88 1005.2
20260510082704 50 173 5.0 7.0 0.00 0.01 0.01 88 1005.2
20260510082203 50 171 3.0 8.0 0.00 0.01 0.01 88 1005.1
20260510080703 50 151 3.0 5.0 0.01 0.01 0.01 88 1005.0
20260510080204 50 144 3.0 9.0 0.01 0.01 0.01 88 1005.1
20260510074705 50 156 3.0 6.0 0.01 0.01 0.01 87 1005.1
20260510074205 50 130 3.0 8.0 0.01 0.01 0.01 87 1005.1
20260510072705 50 137 3.0 6.0 0.01 0.01 0.01 86 1005.2
20260510072206 50 157 3.0 8.0 0.01 0.01 0.01 86 1005.1
20260510070705 51 165 4.0 7.0 0.00 0.00 0.00 84 1005.3
20260510070205 51 163 5.0 9.0 0.00 0.00 0.00 83 1005.2
20260510064705 51 151 4.0 10.0 0.00 0.00 0.00 81 1005.1
20260510064205 51 165 4.0 12.0 0.00 0.00 0.00 80 1005.1
20260510062705 51 153 5.0 10.0 0.00 0.00 0.00 80 1005.1
20260510062205 51 154 5.0 10.0 0.00 0.00 0.00 80 1005.1
20260510060705 51 151 5.0 10.0 0.00 0.00 0.00 79 1005.1
20260510060205 51 142 6.0 17.0 0.00 0.00 0.00 79 1005.1
20260510054706 51 125 5.0 21.0 0.00 0.00 0.00 79 1005.1
20260510054205 51 134 5.0 17.0 0.00 0.00 0.00 79 1005.1
20260510052705 51 136 5.0 16.0 0.00 0.00 0.00 79 1005.4
20260510052205 51 129 5.0 18.0 0.00 0.00 0.00 79 1005.4
20260510050705 51 118 5.0 9.0 0.00 0.00 0.00 78 1005.4
20260510050205 51 130 6.0 16.0 0.00 0.00 0.00 78 1005.3
20260510044705 51 144 9.0 20.0 0.00 0.00 0.00 78 1005.2
20260510044205 51 131 6.0 14.0 0.00 0.00 0.00 79 1005.2
20260510042705 51 135 3.0 9.0 0.00 0.00 0.00 79 1005.2
20260510042206 50 137 7.0 15.0 0.00 0.00 0.00 79 1005.2
20260510040705 50 144 4.0 10.0 0.00 0.00 0.00 78 1005.6
20260510040205 50 132 4.0 10.0 0.00 0.00 0.00 78 1005.4
20260510034705 50 111 4.0 10.0 0.00 0.00 0.00 77 1005.4
20260510034205 50 123 3.0 13.0 0.00 0.00 0.00 76 1005.5
20260510032705 50 129 5.0 13.0 0.00 0.00 0.00 76 1005.9
20260510032205 50 139 3.0 10.0 0.00 0.00 0.00 75 1006.0
20260510030704 50 125 3.0 7.0 0.00 0.00 0.00 75 1006.3
20260510030205 50 129 4.0 9.0 0.00 0.00 0.00 74 1006.3
20260510024705 51 118 4.0 7.0 0.00 0.00 0.00 73 1006.5
20260510024205 51 137 3.0 9.0 0.00 0.00 0.00 73 1006.5
20260510022704 51 115 3.0 6.0 0.00 0.00 0.00 72 1006.5
20260510022205 51 131 3.0 9.0 0.00 0.00 0.00 72 1006.6
20260510020705 52 126 4.0 12.0 0.00 0.00 0.00 71 1006.5
20260510020205 52 116 4.0 9.0 0.00 0.00 0.00 70 1006.5
20260510014705 52 126 3.0 9.0 0.00 0.00 0.00 70 1006.6
20260510014204 52 125 4.0 16.0 0.00 0.00 0.00 69 1006.8
20260510012705 53 111 5.0 9.0 0.00 0.00 0.00 69 1006.9
20260510012205 53 129 3.0 16.0 0.00 0.00 0.00 69 1007.0
20260510010704 53 124 5.0 14.0 0.00 0.00 0.00 69 1007.0
20260510010205 53 122 3.0 16.0 0.00 0.00 0.00 70 1007.1
20260510004705 53 146 4.0 10.0 0.00 0.00 0.00 70 1007.0
20260510004204 53 150 5.0 18.0 0.00 0.00 0.00 70 1007.0
20260510002705 53 127 4.0 8.0 0.00 0.00 0.00 69 1006.8
20260510002204 53 128 4.0 13.0 0.00 0.00 0.00 69 1006.9
20260510000705 53 137 5.0 10.0 0.00 0.00 0.00 67 1006.8
20260510000205 54 119 5.0 12.0 0.00 0.00 0.00 67 1006.8
20260509234704 54 140 5.0 10.0 0.00 0.00 0.00 65 1006.9
20260509234205 55 144 3.0 12.0 0.00 0.00 0.00 64 1007.0
20260509232705 55 124 5.0 12.0 0.00 0.00 0.00 63 1006.9
20260509232205 56 135 5.0 13.0 0.00 0.00 0.00 62 1006.9
20260509230705 57 139 5.0 10.0 0.00 0.00 0.00 59 1006.8
20260509230204 58 130 5.0 15.0 0.00 0.00 0.00 58 1006.9
20260509224705 59 148 4.0 9.0 0.00 0.00 0.00 55 1006.7
20260509224205 59 129 5.0 17.0 0.00 0.00 0.00 54 1006.6
20260509222704 60 122 7.0 15.0 0.00 0.00 0.00 49 1006.5
20260509222204 61 130 6.0 13.0 0.00 0.00 0.00 49 1006.4
20260509220704 62 139 5.0 13.0 0.00 0.00 0.00 45 1006.4
20260509220204 62 133 6.0 14.0 0.00 0.00 0.00 44 1006.3
20260509214704 63 120 9.0 18.0 0.00 0.00 0.00 41 1006.3
20260509214205 63 134 6.0 20.0 0.00 0.00 0.00 40 1006.3
20260509212705 64 142 6.0 16.0 0.00 0.00 0.00 39 1006.3
20260509212205 64 145 8.0 18.0 0.00 0.00 0.00 37 1006.2
20260509210704 65 139 6.0 13.0 0.00 0.00 0.00 31 1006.1
20260509210204 66 114 5.0 12.0 0.00 0.00 0.00 30 1006.1
20260509204704 65 122 4.0 12.0 0.00 0.00 0.00 30 1006.1
20260509204205 65 139 5.0 17.0 0.00 0.00 0.00 30 1006.3
20260509202704 66 130 6.0 12.0 0.00 0.00 0.00 30 1006.3
20260509202205 66 161 6.0 15.0 0.00 0.00 0.00 29 1006.3
20260509200705 66 111 5.0 10.0 0.00 0.00 0.00 29 1006.4
20260509200204 66 157 4.0 16.0 0.00 0.00 0.00 29 1006.4
20260509194704 66 114 5.0 10.0 0.00 0.00 0.00 29 1006.4
20260509194204 66 154 3.0 14.0 0.00 0.00 0.00 29 1006.4
20260509192704 66 114 5.0 13.0 0.00 0.00 0.00 29 1006.6
20260509192204 66 129 7.0 12.0 0.00 0.00 0.00 29 1006.6
20260509190704 66 106 3.0 7.0 0.00 0.00 0.00 30 1006.7
20260509190205 66 145 5.0 12.0 0.00 0.00 0.00 32 1006.9
20260509184704 65 125 3.0 7.0 0.00 0.00 0.00 33 1007.2
20260509184204 65 163 3.0 9.0 0.00 0.00 0.00 32 1007.3